This demonstration page uses our WeatherBlox Daily Observations layout. Learn more.

39.29038, -76.61219

Hourly Observations for January 22, 2020

Temp ( °F °C ) Dew Point ( °F °C ) Humidity (%) Winds ( mph kmh ) Pressure ( in mb ) Visibility ( mi km ) Precip ( " mm )
12:54 am 00:54 undefined 28 -2.2 14 -10 56 56 undefined N/A 30.46 1032 N/A 0 0
1:54 am 01:54 undefined 28 -2.2 14 -10 56 56 undefined N/A 30.45 1031 N/A 0 0
2:54 am 02:54 undefined 27 -2.8 14 -10 58 58 undefined N/A 30.46 1031 N/A 0 0
3:54 am 03:54 undefined 27 -2.8 14 -10 58 58 undefined N/A 30.45 1031 N/A 0 0
4:54 am 04:54 undefined 26 -3.3 13 -10.6 57 57 undefined N/A 30.46 1031 N/A 0 0
5:54 am 05:54 undefined 27 -2.8 14 -10 58 58 undefined N/A 30.46 1032 N/A 0 0
6:54 am 06:54 undefined 27 -2.8 14 -10 58 58 undefined N/A 30.5 1033 N/A 0 0
7:54 am 07:54 undefined 27 -2.8 13 -10.6 55 55 undefined N/A 30.5 1033 N/A 0 0
8:54 am 08:54 undefined 29 -1.7 13 -10.6 51 51 undefined N/A 30.52 1034 N/A 0 0
9:54 am 09:54 undefined 32 0 14 -10 47 47 undefined N/A 30.52 1034 N/A 0 0
10:54 am 10:54 undefined 35 1.7 16 -8.9 46 46 undefined N/A 30.52 1034 N/A 0 0
11:54 am 11:54 undefined 37 2.8 16 -8.9 42 42 undefined N/A 30.5 1033 N/A 0 0
12:54 pm 12:54 undefined 40 4.4 17 -8.3 40 40 undefined N/A 30.46 1031 N/A 0 0
1:54 pm 13:54 undefined 39 3.9 17 -8.3 41 41 undefined N/A 30.44 1031 N/A 0 0
2:54 pm 14:54 undefined 40 4.4 15 -9.4 36 36 undefined N/A 30.43 1031 N/A 0 0
3:54 pm 15:54 undefined 39 3.9 18 -7.8 43 43 undefined N/A 30.43 1031 N/A 0 0
4:54 pm 16:54 undefined 36 2.2 21 -6.1 55 55 undefined N/A 30.43 1030 N/A 0 0
5:54 pm 17:54 undefined 35 1.7 22 -5.6 59 59 undefined N/A 30.44 1031 N/A 0 0
6:54 pm 18:54 undefined 35 1.7 22 -5.6 59 59 undefined N/A 30.44 1031 N/A 0 0
7:54 pm 19:54 undefined 34 1.1 20 -6.7 56 56 undefined N/A 30.44 1031 N/A 0 0
8:54 pm 20:54 undefined 33 0.6 20 -6.7 58 58 undefined N/A 30.44 1031 N/A 0 0
9:54 pm 21:54 undefined 33 0.6 20 -6.7 58 58 undefined N/A 30.44 1031 N/A 0 0
10:54 pm 22:54 undefined 32 0 21 -6.1 64 64 undefined N/A 30.45 1031 N/A 0 0
11:54 pm 23:54 undefined 33 0.6 20 -6.7 58 58 undefined N/A 30.45 1031 N/A 0 0

Powered by AerisWeather